Overview Statistics Trail Chart Weather Telemetry Raw packets
 

This is the latest recevied weather packets stored in our database for station/object N5JXS. If no packets are shown the sender has not sent any weather packets the latest 10 day(s).

<< 105 106 107 108 109 110 111 >>
Time Temp. Humidity Pressure Rain* Wind** Luminosity Snow
1787830694 14.44° C 74% 1031.4 hPa 0 mm - 0 W/m² -
1787830392 14.44° C 73% 1031.2 hPa 0 mm - 0 W/m² -
1787830087 14.44° C 70% 1031.2 hPa 0 mm - 0 W/m² -
1787829787 13.89° C 73% 1031.4 hPa 0 mm - 0 W/m² -
1787829481 13.89° C 75% 1031.2 hPa 0 mm - 0 W/m² -
1787829178 13.33° C 78% 1031.3 hPa 0 mm - 0 W/m² -
1787828873 12.78° C 80% 1031.1 hPa 0 mm - 0 W/m² -
1787828570 12.78° C 83% 1031.2 hPa 0 mm - 0 W/m² -
1787828269 12.78° C 85% 1031.3 hPa 0 mm - 0 W/m² -
1787827967 12.22° C 86% 1031.4 hPa 0 mm - 0 W/m² -
1787827662 12.22° C 86% 1031.6 hPa 0 mm - 0 W/m² -
1787827357 12.22° C 86% 1031.7 hPa 0 mm - 0 W/m² -
1787827056 12.22° C 86% 1031.3 hPa 0 mm - 0 W/m² -
1787826751 12.22° C 86% 1031.4 hPa 0 mm - 0 W/m² -
1787826446 12.22° C 85% 1031.2 hPa 0 mm - 0 W/m² -
1787826142 12.22° C 85% 1031.3 hPa 0 mm - 0 W/m² -
1787825841 12.78° C 86% 1031.2 hPa 0 mm - 0 W/m² -
1787825540 12.78° C 85% 1031.3 hPa 0 mm - 0 W/m² -
1787825236 12.78° C 85% 1031.3 hPa 0 mm - 0 W/m² -
1787824933 12.78° C 85% 1031.3 hPa 0 mm - 0 W/m² -
1787824631 12.22° C 85% 1031.3 hPa 0 mm - 0 W/m² -
1787824326 12.22° C 86% 1031.6 hPa 0 mm - 0 W/m² -
1787824022 12.22° C 86% 1031.4 hPa 0 mm - 0 W/m² -
1787823717 12.22° C 86% 1031.7 hPa 0 mm - 0 W/m² -
1787823416 12.22° C 86% 1031.6 hPa 0 mm - 0 W/m² -

* Rain latest hour (hover to see other rain measurements)
** Current wind speed in m/s (hover to see current wind gust speed)